Location: Arclight Observatory
(36.5667°N, 87.3333°W)
Time: 08:31:57
(UTC-05:00)

ISS - Visible Passes

Search period start: 21 October 2014 00:00
Search period end: 31 October 2014 00:00
Orbit: 413 x 416 km, 51.6° (Epoch: 20 October)

Date Brightness Start Highest point End Pass type
(mag) Time Alt. Az. Time Alt. Az. Time Alt. Az.
21 Oct -1.0 19:30:38 10° NNW 19:31:58 14° NNE 19:31:58 14° NNE visible
22 Oct -0.9 18:42:25 10° N 18:43:17 11° NNE 18:44:09 10° NE visible
22 Oct -0.3 20:17:22 10° NW 20:17:52 14° NW 20:17:52 14° NW visible
23 Oct -2.0 19:28:28 10° NNW 19:30:57 28° NNE 19:30:57 28° NNE visible
24 Oct -1.6 18:39:41 10° NNW 18:42:11 19° NNE 18:44:08 13° ENE visible
24 Oct -0.6 20:15:49 10° WNW 20:17:01 20° WNW 20:17:01 20° WNW visible
25 Oct -3.4 19:26:35 10° NW 19:29:56 83° NE 19:30:19 67° ESE visible
26 Oct -2.8 18:37:30 10° NW 18:40:42 43° NE 18:43:47 11° ESE visible
26 Oct -0.4 20:15:01 10° W 20:16:42 16° WSW 20:16:42 16° WSW visible
27 Oct -1.4 19:25:06 10° WNW 19:28:03 29° SW 19:30:25 14° S visible
28 Oct -2.7 18:35:35 10° NW 18:38:52 59° SW 18:42:08 10° SE visible
30 Oct -0.3 18:34:16 10° W 18:36:40 19° SW 18:39:03 10° S visible
